This is the latest recevied weather packets stored in our database for station/object IW1CGW-23. If no packets are shown the sender has not sent any weather packets the latest 10 day(s).
| Time | Temp. | Humidity | Pressure | Rain* | Wind** | Luminosity | Snow |
|---|---|---|---|---|---|---|---|
| 1777373119 | 19.44° C | 78% | 1017.3 hPa | - | - | - | - |
| 1777372333 | 20° C | 78% | 1017.4 hPa | - | - | - | - |
| 1777371547 | 20° C | 77% | 1017.5 hPa | - | - | - | - |
| 1777369975 | 20.56° C | 76% | 1017.5 hPa | - | - | - | - |
| 1777369189 | 20° C | 77% | 1017.5 hPa | - | - | - | - |
| 1777367618 | 20° C | 77% | 1017.4 hPa | - | - | - | - |
| 1777365261 | 19.44° C | 79% | 1017.4 hPa | - | - | - | - |
| 1777364475 | 19.44° C | 80% | 1017.3 hPa | - | - | - | - |
| 1777359761 | 19.44° C | 82% | 1017.3 hPa | - | - | - | - |
| 1777358195 | 16.11° C | 86% | 1017.3 hPa | - | - | - | - |
| 1777357411 | 16.11° C | 87% | 1017.4 hPa | - | - | - | - |
| 1777355062 | 15.56° C | 88% | 1017 hPa | - | - | - | - |
| 1777353497 | 15° C | 90% | 1016.9 hPa | - | - | - | - |
| 1777351153 | 13.33° C | 90% | 1016.7 hPa | - | - | - | - |
| 1777350372 | 13.89° C | 90% | 1016.7 hPa | - | - | - | - |
| 1777348028 | 13.89° C | 91% | 1016.7 hPa | - | - | - | - |
| 1777347247 | 13.89° C | 91% | 1016.9 hPa | - | - | - | - |
| 1777342560 | 13.89° C | 92% | 1017.3 hPa | - | - | - | - |
| 1777336312 | 13.33° C | 92% | 1017.7 hPa | - | - | - | - |
| 1777335531 | 13.33° C | 92% | 1017.8 hPa | - | - | - | - |
| 1777334750 | 13.33° C | 92% | 1017.9 hPa | - | - | - | - |
| 1777333969 | 13.33° C | 92% | 1017.9 hPa | - | - | - | - |
| 1777331627 | 13.33° C | 91% | 1018 hPa | - | - | - | - |
| 1777330065 | 13.89° C | 91% | 1018.2 hPa | - | - | - | - |
| 1777327722 | 13.89° C | 90% | 1018.2 hPa | - | - | - | - |
* Rain since midnight (hover to see other rain measurements)
** Current wind speed in m/s (hover to see current wind gust speed)